DLH161F EDDH-LIMC

Flight info

Callsign DLH161F
Flight time N/A
Altitude 41000
Route AMLUH2G/33 AMLUH M852 DENIX DCT ZUCKA DCT EXITI DCT BERAS/N0482F400 DCT OLPIX/N0483F410 DCT EKPEB DCT RENTA DCT ATPED DCT LUSIL/N0435F190 M984 EVRIP
Aircraft A359/H-SDE2E3GHIJ3J4J5LM1ORWXY/LB1D1

Departure

Time 2026-05-04 15:34
Airport Hamburg Helmut Schmidt Airport (EDDH)

Arrival

Time N/A
Airport Milan Malpensa International Airport (LIMC)
Time Latitude Longitude Altitude Speed Heading
2026-05-04 14:32 53.63013 10.00337 49 ft 0 kts 123°
2026-05-04 14:33 53.63010 10.00345 50 ft 0 kts 123°
2026-05-04 15:24 53.63023 10.00312 47 ft 4 kts 123°
2026-05-04 15:25 53.63036 10.00279 47 ft 2 kts 123°
2026-05-04 15:25 53.63051 10.00246 47 ft 4 kts 143°
2026-05-04 15:25 53.63074 10.00227 47 ft 4 kts 175°
2026-05-04 15:26 53.63099 10.00227 47 ft 0 kts 181°
2026-05-04 15:26 53.63098 10.00228 47 ft 0 kts 181°
2026-05-04 15:32 53.62987 10.00135 47 ft 12 kts 213°
2026-05-04 15:32 53.62835 9.99931 49 ft 15 kts 239°
2026-05-04 15:33 53.62844 9.99765 48 ft 7 kts 332°
2026-05-04 15:34 53.63567 9.99141 47 ft 118 kts 333°
2026-05-04 15:34 53.64462 9.98377 263 ft 158 kts 333°
2026-05-04 15:34 53.66503 9.96703 1538 ft 185 kts 331°
2026-05-04 15:35 53.69051 9.94781 2905 ft 210 kts 347°
2026-05-04 15:35 53.70532 9.94824 3694 ft 220 kts 11°
2026-05-04 15:35 53.71867 9.96171 4437 ft 232 kts 46°
2026-05-04 15:36 53.73553 10.00903 6037 ft 240 kts 65°
2026-05-04 15:36 53.73882 10.03681 6790 ft 246 kts 95°
2026-05-04 15:36 53.73368 10.06499 7282 ft 263 kts 120°
2026-05-04 15:37 53.72430 10.09293 7777 ft 281 kts 123°
2026-05-04 15:37 53.71416 10.12167 8598 ft 288 kts 123°
2026-05-04 15:37 53.70395 10.15117 9509 ft 293 kts 123°
2026-05-04 15:37 53.69333 10.18090 10340 ft 300 kts 128°
2026-05-04 15:38 53.67811 10.20593 10733 ft 315 kts 153°
2026-05-04 15:38 53.65729 10.21954 11112 ft 331 kts 168°
2026-05-04 15:38 53.63464 10.22958 11540 ft 349 kts 169°
2026-05-04 15:38 53.61073 10.23999 12201 ft 359 kts 169°
2026-05-04 15:39 53.58632 10.25087 12981 ft 366 kts 168°
2026-05-04 15:39 53.56153 10.26206 13773 ft 372 kts 168°
2026-05-04 15:39 53.51093 10.28508 15244 ft 380 kts 168°
2026-05-04 15:40 53.48531 10.29676 16004 ft 383 kts 168°
2026-05-04 15:40 53.45954 10.30851 16753 ft 387 kts 169°
2026-05-04 15:40 53.43337 10.32043 17512 ft 390 kts 169°
2026-05-04 15:40 53.40702 10.33244 18253 ft 394 kts 169°
2026-05-04 15:41 53.38049 10.34443 18977 ft 396 kts 169°
2026-05-04 15:41 53.35374 10.35643 19693 ft 400 kts 170°
2026-05-04 15:41 53.32676 10.36848 20390 ft 403 kts 170°
2026-05-04 15:41 53.29949 10.38065 21093 ft 407 kts 170°
2026-05-04 15:42 53.27205 10.39289 21747 ft 411 kts 170°
2026-05-04 15:42 53.24423 10.40531 22396 ft 415 kts 170°
2026-05-04 15:42 53.21615 10.41784 23085 ft 419 kts 170°
2026-05-04 15:42 53.18782 10.43047 23712 ft 424 kts 171°
2026-05-04 15:43 53.15923 10.44321 24294 ft 427 kts 171°
2026-05-04 15:43 53.13039 10.45605 24896 ft 429 kts 171°
2026-05-04 15:43 53.10140 10.46813 25495 ft 430 kts 173°
2026-05-04 15:43 53.07204 10.47785 26103 ft 431 kts 176°
2026-05-04 15:44 53.04240 10.48640 26696 ft 433 kts 176°
2026-05-04 15:44 53.01263 10.49467 27275 ft 435 kts 177°
2026-05-04 15:44 52.98267 10.50313 27855 ft 438 kts 176°
2026-05-04 15:44 52.95252 10.51192 28415 ft 441 kts 176°
2026-05-04 15:45 52.92219 10.52102 28982 ft 444 kts 176°
2026-05-04 15:45 52.89169 10.53035 29517 ft 447 kts 176°
2026-05-04 15:45 52.86105 10.53980 30016 ft 450 kts 176°
2026-05-04 15:45 52.83019 10.54935 30445 ft 453 kts 176°
2026-05-04 15:46 52.79906 10.55897 30825 ft 456 kts 176°
2026-05-04 15:46 52.76773 10.56863 31193 ft 459 kts 176°
2026-05-04 15:46 52.73632 10.57830 31588 ft 461 kts 176°
2026-05-04 15:46 52.70467 10.58803 31921 ft 464 kts 176°
2026-05-04 15:47 52.67281 10.59778 32186 ft 468 kts 176°
2026-05-04 15:47 52.64062 10.60760 32477 ft 472 kts 176°
2026-05-04 15:47 52.60824 10.61749 32803 ft 474 kts 176°
2026-05-04 15:47 52.57585 10.62739 33249 ft 473 kts 176°
2026-05-04 15:48 52.54347 10.63728 33719 ft 473 kts 176°
2026-05-04 15:48 52.51118 10.64713 34111 ft 471 kts 176°
2026-05-04 15:48 52.44691 10.66667 34870 ft 469 kts 175°
2026-05-04 15:49 52.41479 10.67638 35188 ft 470 kts 175°
2026-05-04 15:49 52.38263 10.68608 35513 ft 470 kts 175°
2026-05-04 15:49 52.35056 10.69575 35813 ft 470 kts 175°
2026-05-04 15:49 52.31834 10.70544 36107 ft 470 kts 175°
2026-05-04 15:50 52.28617 10.71511 36411 ft 470 kts 175°
2026-05-04 15:50 52.25402 10.72476 36739 ft 469 kts 175°
2026-05-04 15:50 52.22193 10.73439 37089 ft 468 kts 175°
2026-05-04 15:50 52.18986 10.74401 37401 ft 468 kts 175°
2026-05-04 15:51 52.15781 10.75359 37711 ft 468 kts 175°
2026-05-04 15:51 52.12622 10.76301 37997 ft 468 kts 174°
2026-05-04 15:51 52.09421 10.77255 38271 ft 468 kts 174°
2026-05-04 15:51 52.06220 10.78208 38551 ft 468 kts 174°
2026-05-04 15:52 52.03016 10.79161 38782 ft 467 kts 174°
2026-05-04 15:52 51.99820 10.80109 38965 ft 468 kts 174°
2026-05-04 15:52 51.96615 10.81059 39131 ft 468 kts 174°
2026-05-04 15:52 51.93405 10.82008 39245 ft 470 kts 174°
2026-05-04 15:53 51.90185 10.82958 39401 ft 471 kts 174°
2026-05-04 15:53 51.86963 10.83909 39591 ft 471 kts 174°
2026-05-04 15:53 51.83739 10.84859 39754 ft 471 kts 174°
2026-05-04 15:53 51.80517 10.85807 39896 ft 471 kts 174°
2026-05-04 15:54 51.77291 10.86754 40044 ft 472 kts 174°
2026-05-04 15:54 51.74064 10.87701 40231 ft 471 kts 174°
2026-05-04 15:54 51.70831 10.88649 40388 ft 472 kts 173°
2026-05-04 15:54 51.67597 10.89595 40524 ft 472 kts 173°
2026-05-04 15:55 51.64358 10.90513 40664 ft 472 kts 174°
2026-05-04 15:55 51.61112 10.91351 40791 ft 473 kts 175°
2026-05-04 15:55 51.57858 10.92150 40925 ft 473 kts 175°
2026-05-04 15:55 51.54600 10.92939 40973 ft 474 kts 175°
2026-05-04 15:56 51.48078 10.94533 40975 ft 474 kts 175°
2026-05-04 15:56 51.41558 10.96155 40974 ft 474 kts 174°
2026-05-04 15:57 51.35047 10.97783 40968 ft 474 kts 174°
2026-05-04 15:57 51.28532 10.99408 40958 ft 474 kts 174°
2026-05-04 15:58 51.22023 11.01027 40958 ft 473 kts 174°
2026-05-04 15:58 51.15507 11.02641 40969 ft 474 kts 174°
2026-05-04 15:59 51.08989 11.04251 40966 ft 474 kts 174°
2026-05-04 15:59 51.02475 11.05855 40960 ft 474 kts 174°
2026-05-04 16:00 50.95958 11.07457 40966 ft 473 kts 174°
2026-05-04 16:00 50.89484 11.09043 40968 ft 473 kts 174°
2026-05-04 16:02 50.70462 11.13675 40971 ft 473 kts 174°
2026-05-04 16:03 50.60689 11.16042 40972 ft 473 kts 174°
2026-05-04 16:03 50.54184 11.17612 40972 ft 473 kts 174°
2026-05-04 16:04 50.47669 11.19180 40963 ft 473 kts 174°
2026-05-04 16:04 50.37907 11.21518 40970 ft 473 kts 174°
2026-05-04 16:05 50.31396 11.23072 40967 ft 473 kts 174°
2026-05-04 16:06 50.21625 11.25399 40966 ft 474 kts 174°
2026-05-04 16:07 50.08595 11.28487 40959 ft 474 kts 174°
2026-05-04 16:08 49.95550 11.31560 40963 ft 474 kts 174°
2026-05-04 16:09 49.79246 11.35379 40964 ft 474 kts 174°
2026-05-04 16:10 49.66530 11.38338 40962 ft 474 kts 174°
2026-05-04 16:11 49.53468 11.41176 40961 ft 472 kts 181°
2026-05-04 16:12 49.33796 11.43900 40957 ft 474 kts 180°
2026-05-04 16:13 49.20683 11.46150 40950 ft 474 kts 180°
2026-05-04 16:14 49.07570 11.48373 40952 ft 474 kts 180°
2026-05-04 16:16 48.91177 11.51127 40937 ft 475 kts 180°
2026-05-04 16:17 48.74712 11.53876 40939 ft 476 kts 180°
2026-05-04 16:18 48.61540 11.56062 40940 ft 476 kts 180°
2026-05-04 16:19 48.45076 11.58777 40938 ft 476 kts 180°
2026-05-04 16:20 48.28624 11.61474 40940 ft 476 kts 180°
2026-05-04 16:22 48.12158 11.64155 40936 ft 478 kts 180°
2026-05-04 16:23 47.92335 11.67360 40924 ft 478 kts 180°